Zurück zum Katalog

LANDSAT 1

ERTS 1

AktivWissenschaftSSO
NORAD 6126·PAYLOAD·🇺🇸 United States

Gestartet Jul 23, 1972 von Vandenberg Space Force Base

Loading…

Nächste Überflüge (nächste 24 Stunden)

TLE

AktuellSource: Space-Track

Epoche: Sep 14, 2026, 08:40 UTC

1 06126U 72058A   26257.36143609  .00000047  00000-0  65861-4 0  9992
2 06126  99.3311 288.5777 0008132  19.8949 340.2529 13.97839911760415

Verfolge LANDSAT 1 in Echtzeit mit AllMySat

Download on the App Store